Regional Weather Roundup
Issued by NWS

Home | Current Version | Previous Version | Graphics & Text | Print | Product List | Glossary On
Versions: 1 2 3 4 5 6 7 8 9 10 11 12 13 14 15 16 17 18 19 20 21 22 23 24 25 26 27 28 29 30 31 32 33 34 35 36 37 38 39 40 41 42 43 44 45 46 47 48 49 50
000
ASUS45 KCYS 060210
RWRWY

WYOMING REGIONAL WEATHER ROUNDUP
NATIONAL WEATHER SERVICE CHEYENNE WY
800 PM MDT TUE MAY 05 2015

NOTE:  "FAIR" INDICATES FEW OR NO CLOUDS BELOW 12,000 FEET
WITH NO SIGNIFICANT WEATHER AND/OR OBSTRUCTIONS TO VISIBILITY.

WYZ001-060300-
YELLOWSTONE NATIONAL PARK

CITY           SKY/WX    TMP DP  RH WIND       PRES   REMARKS
LK YELLOWSTONE   N/A     44  35  70 CALM      29.92R
W YELLOWSTONE  NOT AVBL

$$
WYZ002>013-054>058-071-098>099-060300-
NORTHERN WYOMING

CITY           SKY/WX    TMP DP  RH WIND       PRES   REMARKS
JACKSON        PTCLDY    54  37  54 W8        29.82R
CODY           MOCLDY    64  39  39 SW17G25   29.70R
GREYBULL       FAIR      72  36  26 W12       29.61R
WORLAND        FAIR      68  41  37 SE15      29.63S
SHERIDAN       FAIR      67  45  45 SE15G22   29.65F
BUFFALO          N/A     62  44  51 S20G26    29.74S
GILLETTE       FAIR      60  48  64 SE18G28   29.75S
HULETT         FAIR      61  46  59 S9        29.79S
NEWCASTLE      CLOUDY    57  46  67 SE18G25   29.82S

$$
WYZ014>020-022>026-101>103-060300-
CENTRAL WYOMING

CITY           SKY/WX    TMP DP  RH WIND       PRES   REMARKS
BIG PINEY      CLOUDY    50  39  66 NW9       29.85R
PINEDALE       CLOUDY    50  39  66 NW7       29.85S
DUBOIS         CLOUDY    48  37  66 NE6       29.84R
LANDER         MOCLDY    60  37  42 SW10      29.70S
RIVERTON       CLOUDY    63  37  38 W13       29.72R
CASPER         MOCLDY    58  44  60 E10       29.73R
DOUGLAS        FAIR      55  47  74 SE25      29.79S

$$
WYZ021-027>030-104>119-060300-
SOUTHERN WYOMING

CITY           SKY/WX    TMP DP  RH WIND       PRES   REMARKS
EVANSTON       CLOUDY    47  43  86 CALM      29.88S
KEMMERER       CLOUDY    46  45  93 W7        29.87S
FORT BRIDGER   CLOUDY    48  46  93 W8        29.89F
ROCK SPRINGS   CLOUDY    50  41  71 NW16      29.83S
DIXON          CLOUDY    56  43  63 W12       29.80R
RAWLINS        FAIR      56  39  53 E9        29.78R
SARATOGA       FAIR      52  41  66 SE3       29.80R
LARAMIE        FAIR      45  40  82 SE16G25   29.84S
CHEYENNE       CLOUDY    48  44  86 SE8       29.85S
TORRINGTON     CLOUDY    55  50  83 SE10      29.82S
PINE BLUFFS    LGT RAIN  50  48  93 E9G20     29.83F

$$


USA.gov is the U.S. government's official web portal to all federal, state and local government web resources and services.